contact:dominique.lefevre@mio.osupytheas.fr, maurice.libes@osupytheas.fr, didier.mallarino@osupytheas.fr
Project:EMSO http://www.emso-fr.org/EMSO-France
Depth: 2436.0 m
Title:EMSO Ligure Ouest : Data MII capteur MICROCAT
DateTime_Computer,Latitude,Longitude,Temperature,Conductivity,Pressure,DateTime_Instrument
DateTime_Computer,Latitude,Longitude,degC,S m-1,dbar,DateTime_Instrument
2021-07-25T00:02:26Z,42.805,6.029,13.2991,4.60002,2470.45,2021-7-25T02:03:43Z
2021-07-25T00:05:30Z,42.805,6.029,13.2992,4.60001,2470.483,2021-7-25T02:06:46Z
2021-07-25T00:08:33Z,42.805,6.029,13.2995,4.60003,2470.474,2021-7-25T02:09:49Z
2021-07-25T00:11:36Z,42.805,6.029,13.2993,4.60001,2470.46,2021-7-25T02:12:53Z
2021-07-25T00:14:39Z,42.805,6.029,13.2990,4.60002,2470.437,2021-7-25T02:15:56Z
2021-07-25T00:17:42Z,42.805,6.029,13.2993,4.60002,2470.45,2021-7-25T02:18:59Z
2021-07-25T00:20:45Z,42.805,6.029,13.2990,4.60003,2470.45,2021-7-25T02:22:02Z
2021-07-25T00:23:48Z,42.805,6.029,13.2992,4.60015,2470.45,2021-7-25T02:25:05Z
2021-07-25T00:26:51Z,42.805,6.029,13.2991,4.60003,2470.474,2021-7-25T02:28:08Z
2021-07-25T00:29:55Z,42.805,6.029,13.2994,4.60001,2470.437,2021-7-25T02:31:11Z
2021-07-25T00:32:58Z,42.805,6.029,13.2991,4.60003,2470.437,2021-7-25T02:34:14Z
2021-07-25T00:36:01Z,42.805,6.029,13.2991,4.60001,2470.427,2021-7-25T02:37:18Z
2021-07-25T00:39:04Z,42.805,6.029,13.2994,4.60001,2470.45,2021-7-25T02:40:21Z
2021-07-25T00:42:07Z,42.805,6.029,13.2990,4.60001,2470.427,2021-7-25T02:43:24Z
2021-07-25T00:45:10Z,42.805,6.029,13.2990,4.60002,2470.427,2021-7-25T02:46:27Z
2021-07-25T00:48:13Z,42.805,6.029,13.2987,4.60000,2470.437,2021-7-25T02:49:30Z
2021-07-25T00:51:16Z,42.805,6.029,13.2992,4.60000,2470.45,2021-7-25T02:52:33Z
2021-07-25T00:54:20Z,42.805,6.029,13.2988,4.60000,2470.399,2021-7-25T02:55:36Z
2021-07-25T00:57:23Z,42.805,6.029,13.2990,4.60002,2470.413,2021-7-25T02:58:39Z
2021-07-25T01:00:26Z,42.805,6.029,13.2989,4.60001,2470.413,2021-7-25T03:01:43Z
2021-07-25T01:03:29Z,42.805,6.029,13.2990,4.60001,2470.413,2021-7-25T03:04:46Z
2021-07-25T01:06:32Z,42.805,6.029,13.2990,4.59999,2470.366,2021-7-25T03:07:49Z
2021-07-25T01:09:35Z,42.805,6.029,13.2990,4.60000,2470.413,2021-7-25T03:10:52Z
2021-07-25T01:12:38Z,42.805,6.029,13.2996,4.59999,2470.404,2021-7-25T03:13:55Z
2021-07-25T01:15:41Z,42.805,6.029,13.2993,4.59999,2470.39,2021-7-25T03:16:58Z
2021-07-25T01:18:45Z,42.805,6.029,13.2991,4.60001,2470.404,2021-7-25T03:20:01Z
2021-07-25T01:21:48Z,42.805,6.029,13.2994,4.60004,2470.39,2021-7-25T03:23:04Z
2021-07-25T01:24:51Z,42.805,6.029,13.2991,4.60002,2470.404,2021-7-25T03:26:07Z
2021-07-25T01:27:54Z,42.805,6.029,13.2992,4.60006,2470.39,2021-7-25T03:29:11Z
2021-07-25T01:30:57Z,42.805,6.029,13.2991,4.60009,2470.413,2021-7-25T03:32:14Z
2021-07-25T01:34:00Z,42.805,6.029,13.2992,4.60001,2470.38,2021-7-25T03:35:17Z
2021-07-25T01:37:03Z,42.805,6.029,13.2990,4.60001,2470.39,2021-7-25T03:38:20Z
2021-07-25T01:40:06Z,42.805,6.029,13.2991,4.60001,2470.413,2021-7-25T03:41:23Z
2021-07-25T01:43:09Z,42.805,6.029,13.2990,4.60001,2470.404,2021-7-25T03:44:26Z
2021-07-25T01:46:13Z,42.805,6.029,13.2991,4.60000,2470.404,2021-7-25T03:47:29Z
2021-07-25T01:49:16Z,42.805,6.029,13.2992,4.60000,2470.366,2021-7-25T03:50:32Z
2021-07-25T01:52:19Z,42.805,6.029,13.2990,4.60001,2470.357,2021-7-25T03:53:36Z
2021-07-25T01:55:22Z,42.805,6.029,13.2991,4.60000,2470.38,2021-7-25T03:56:39Z
2021-07-25T01:58:25Z,42.805,6.029,13.2987,4.60006,2470.38,2021-7-25T03:59:42Z
2021-07-25T02:01:28Z,42.805,6.029,13.2990,4.59999,2470.343,2021-7-25T04:02:45Z
2021-07-25T02:04:31Z,42.805,6.029,13.2989,4.60000,2470.38,2021-7-25T04:05:48Z
2021-07-25T02:07:34Z,42.805,6.029,13.2991,4.59999,2470.343,2021-7-25T04:08:51Z
2021-07-25T02:10:38Z,42.805,6.029,13.2991,4.60000,2470.343,2021-7-25T04:11:54Z
2021-07-25T02:13:41Z,42.805,6.029,13.2990,4.59999,2470.366,2021-7-25T04:14:57Z
2021-07-25T02:16:44Z,42.805,6.029,13.2990,4.59999,2470.404,2021-7-25T04:18:01Z
2021-07-25T02:19:47Z,42.805,6.029,13.2990,4.60000,2470.357,2021-7-25T04:21:04Z
2021-07-25T02:22:50Z,42.805,6.029,13.2990,4.59998,2470.343,2021-7-25T04:24:07Z
2021-07-25T02:25:53Z,42.805,6.029,13.2990,4.59999,2470.38,2021-7-25T04:27:10Z
2021-07-25T02:28:56Z,42.805,6.029,13.2987,4.59999,2470.343,2021-7-25T04:30:13Z
2021-07-25T02:31:59Z,42.805,6.029,13.2991,4.59999,2470.366,2021-7-25T04:33:16Z
2021-07-25T02:35:03Z,42.805,6.029,13.2993,4.59999,2470.366,2021-7-25T04:36:19Z
2021-07-25T02:38:06Z,42.805,6.029,13.2993,4.59999,2470.366,2021-7-25T04:39:22Z
2021-07-25T02:41:09Z,42.805,6.029,13.2990,4.59998,2470.366,2021-7-25T04:42:26Z
2021-07-25T02:44:12Z,42.805,6.029,13.2991,4.59998,2470.32,2021-7-25T04:45:29Z
2021-07-25T02:47:15Z,42.805,6.029,13.2987,4.59999,2470.366,2021-7-25T04:48:32Z
2021-07-25T02:50:18Z,42.805,6.029,13.2990,4.59999,2470.357,2021-7-25T04:51:35Z
2021-07-25T02:53:21Z,42.805,6.029,13.2990,4.59999,2470.404,2021-7-25T04:54:38Z
2021-07-25T02:56:24Z,42.805,6.029,13.2990,4.59999,2470.334,2021-7-25T04:57:41Z
2021-07-25T02:59:28Z,42.805,6.029,13.2989,4.59999,2470.343,2021-7-25T05:00:44Z
2021-07-25T03:02:31Z,42.805,6.029,13.2991,4.59999,2470.366,2021-7-25T05:03:47Z
2021-07-25T03:05:34Z,42.805,6.029,13.2993,4.60000,2470.366,2021-7-25T05:06:51Z
2021-07-25T03:08:37Z,42.805,6.029,13.2992,4.60001,2470.334,2021-7-25T05:09:54Z
2021-07-25T03:11:40Z,42.805,6.029,13.2989,4.59999,2470.343,2021-7-25T05:12:57Z
2021-07-25T03:14:43Z,42.805,6.029,13.2993,4.59999,2470.343,2021-7-25T05:16:00Z
2021-07-25T03:17:46Z,42.805,6.029,13.2993,4.60001,2470.357,2021-7-25T05:19:03Z
2021-07-25T03:20:49Z,42.805,6.029,13.2992,4.59999,2470.366,2021-7-25T05:22:06Z
2021-07-25T03:23:53Z,42.805,6.029,13.2988,4.59999,2470.343,2021-7-25T05:25:09Z
2021-07-25T03:26:56Z,42.805,6.029,13.2988,4.59999,2470.343,2021-7-25T05:28:12Z
2021-07-25T03:29:59Z,42.805,6.029,13.2992,4.59998,2470.334,2021-7-25T05:31:16Z
2021-07-25T03:33:02Z,42.805,6.029,13.2991,4.59999,2470.343,2021-7-25T05:34:19Z
2021-07-25T03:36:05Z,42.805,6.029,13.2992,4.59999,2470.366,2021-7-25T05:37:22Z
2021-07-25T03:39:08Z,42.805,6.029,13.2993,4.59999,2470.38,2021-7-25T05:40:25Z
2021-07-25T03:42:11Z,42.805,6.029,13.2991,4.59999,2470.39,2021-7-25T05:43:28Z
2021-07-25T03:45:14Z,42.805,6.029,13.2991,4.59999,2470.357,2021-7-25T05:46:31Z
2021-07-25T03:48:18Z,42.805,6.029,13.2990,4.59999,2470.357,2021-7-25T05:49:34Z
2021-07-25T03:51:21Z,42.805,6.029,13.2991,4.59999,2470.357,2021-7-25T05:52:37Z
2021-07-25T03:54:24Z,42.805,6.029,13.2991,4.59998,2470.357,2021-7-25T05:55:41Z
2021-07-25T03:57:27Z,42.805,6.029,13.2990,4.59998,2470.343,2021-7-25T05:58:44Z
2021-07-25T04:00:30Z,42.805,6.029,13.2991,4.60000,2470.366,2021-7-25T06:01:47Z
2021-07-25T04:03:33Z,42.805,6.029,13.2983,4.59999,2470.343,2021-7-25T06:04:50Z
2021-07-25T04:06:36Z,42.805,6.029,13.2990,4.60000,2470.38,2021-7-25T06:07:53Z
2021-07-25T04:09:39Z,42.805,6.029,13.2993,4.60000,2470.38,2021-7-25T06:10:56Z
2021-07-25T04:12:43Z,42.805,6.029,13.2989,4.59999,2470.343,2021-7-25T06:13:59Z
2021-07-25T04:15:46Z,42.805,6.029,13.2992,4.60000,2470.38,2021-7-25T06:17:02Z
2021-07-25T04:18:49Z,42.805,6.029,13.2989,4.59999,2470.343,2021-7-25T06:20:06Z
2021-07-25T04:21:52Z,42.805,6.029,13.2990,4.60000,2470.366,2021-7-25T06:23:09Z
2021-07-25T04:24:55Z,42.805,6.029,13.2992,4.59999,2470.366,2021-7-25T06:26:12Z
2021-07-25T04:27:58Z,42.805,6.029,13.2990,4.60000,2470.343,2021-7-25T06:29:15Z
2021-07-25T04:31:01Z,42.805,6.029,13.2991,4.60001,2470.343,2021-7-25T06:32:18Z
2021-07-25T04:34:04Z,42.805,6.029,13.2990,4.60002,2470.39,2021-7-25T06:35:21Z
2021-07-25T04:37:08Z,42.805,6.029,13.2990,4.59999,2470.404,2021-7-25T06:38:24Z
2021-07-25T04:40:11Z,42.805,6.029,13.2991,4.59999,2470.39,2021-7-25T06:41:27Z
2021-07-25T04:43:14Z,42.805,6.029,13.2990,4.59999,2470.427,2021-7-25T06:44:31Z
2021-07-25T04:46:17Z,42.805,6.029,13.2992,4.59999,2470.366,2021-7-25T06:47:34Z
2021-07-25T04:49:20Z,42.805,6.029,13.2986,4.59998,2470.427,2021-7-25T06:50:37Z
2021-07-25T04:52:23Z,42.805,6.029,13.2990,4.59999,2470.39,2021-7-25T06:53:40Z
2021-07-25T04:55:26Z,42.805,6.029,13.2990,4.59999,2470.427,2021-7-25T06:56:43Z
2021-07-25T04:58:29Z,42.805,6.029,13.2991,4.59999,2470.366,2021-7-25T06:59:46Z
2021-07-25T05:01:33Z,42.805,6.029,13.2991,4.59999,2470.404,2021-7-25T07:02:49Z
2021-07-25T05:04:36Z,42.805,6.029,13.2990,4.59999,2470.366,2021-7-25T07:05:52Z
2021-07-25T05:07:39Z,42.805,6.029,13.2989,4.59999,2470.404,2021-7-25T07:08:56Z
2021-07-25T05:10:42Z,42.805,6.029,13.2990,4.59999,2470.437,2021-7-25T07:11:59Z
2021-07-25T05:13:45Z,42.805,6.029,13.2993,4.60001,2470.45,2021-7-25T07:15:02Z
2021-07-25T05:16:48Z,42.805,6.029,13.2991,4.60001,2470.39,2021-7-25T07:18:05Z
2021-07-25T05:19:51Z,42.805,6.029,13.2991,4.60001,2470.413,2021-7-25T07:21:08Z
2021-07-25T05:22:54Z,42.805,6.029,13.2993,4.60001,2470.437,2021-7-25T07:24:11Z
2021-07-25T05:25:57Z,42.805,6.029,13.2993,4.60000,2470.413,2021-7-25T07:27:14Z
2021-07-25T05:29:01Z,42.805,6.029,13.2991,4.60001,2470.46,2021-7-25T07:30:17Z
2021-07-25T05:32:04Z,42.805,6.029,13.2991,4.60001,2470.39,2021-7-25T07:33:21Z
2021-07-25T05:35:07Z,42.805,6.029,13.2989,4.60000,2470.437,2021-7-25T07:36:24Z
2021-07-25T05:38:10Z,42.805,6.029,13.2992,4.59999,2470.45,2021-7-25T07:39:27Z
2021-07-25T05:41:13Z,42.805,6.029,13.2990,4.59999,2470.437,2021-7-25T07:42:30Z
2021-07-25T05:44:16Z,42.805,6.029,13.2986,4.59999,2470.437,2021-7-25T07:45:33Z
2021-07-25T05:47:19Z,42.805,6.029,13.2986,4.60000,2470.413,2021-7-25T07:48:36Z
2021-07-25T05:50:22Z,42.805,6.029,13.2987,4.60000,2470.474,2021-7-25T07:51:39Z
2021-07-25T05:53:26Z,42.805,6.029,13.2993,4.60000,2470.46,2021-7-25T07:54:42Z
2021-07-25T05:56:29Z,42.805,6.029,13.2991,4.60000,2470.45,2021-7-25T07:57:46Z
2021-07-25T05:59:32Z,42.805,6.029,13.2989,4.60000,2470.413,2021-7-25T08:00:49Z
2021-07-25T06:02:35Z,42.805,6.029,13.2991,4.60001,2470.483,2021-7-25T08:03:52Z
2021-07-25T06:05:38Z,42.805,6.029,13.2990,4.60000,2470.46,2021-7-25T08:06:55Z
2021-07-25T06:08:41Z,42.805,6.029,13.2993,4.60003,2470.437,2021-7-25T08:09:58Z
2021-07-25T06:11:44Z,42.805,6.029,13.2992,4.59999,2470.474,2021-7-25T08:13:01Z
2021-07-25T06:14:47Z,42.805,6.029,13.2991,4.60001,2470.474,2021-7-25T08:16:04Z
2021-07-25T06:17:51Z,42.805,6.029,13.2992,4.60000,2470.497,2021-7-25T08:19:07Z
2021-07-25T06:20:54Z,42.805,6.029,13.2991,4.60000,2470.45,2021-7-25T08:22:10Z
2021-07-25T06:23:57Z,42.805,6.029,13.2993,4.60000,2470.45,2021-7-25T08:25:14Z
2021-07-25T06:27:00Z,42.805,6.029,13.2991,4.60001,2470.497,2021-7-25T08:28:17Z
2021-07-25T06:30:03Z,42.805,6.029,13.2993,4.60001,2470.474,2021-7-25T08:31:20Z
2021-07-25T06:33:06Z,42.805,6.029,13.2994,4.60001,2470.483,2021-7-25T08:34:23Z
2021-07-25T06:36:09Z,42.805,6.029,13.2990,4.59999,2470.474,2021-7-25T08:37:26Z
2021-07-25T06:39:12Z,42.805,6.029,13.2994,4.60000,2470.483,2021-7-25T08:40:29Z
2021-07-25T06:42:16Z,42.805,6.029,13.2993,4.60001,2470.46,2021-7-25T08:43:32Z
2021-07-25T06:45:19Z,42.805,6.029,13.2990,4.60001,2470.497,2021-7-25T08:46:35Z
2021-07-25T06:48:22Z,42.805,6.029,13.2992,4.60001,2470.497,2021-7-25T08:49:39Z
2021-07-25T06:51:25Z,42.805,6.029,13.2991,4.60001,2470.474,2021-7-25T08:52:42Z
2021-07-25T06:54:28Z,42.805,6.029,13.2993,4.60006,2470.507,2021-7-25T08:55:45Z
2021-07-25T06:57:31Z,42.805,6.029,13.2990,4.60000,2470.483,2021-7-25T08:58:48Z
2021-07-25T07:00:34Z,42.805,6.029,13.2993,4.60001,2470.497,2021-7-25T09:01:51Z
2021-07-25T07:03:37Z,42.805,6.029,13.2991,4.60001,2470.483,2021-7-25T09:04:54Z
2021-07-25T07:06:41Z,42.805,6.029,13.2995,4.60001,2470.507,2021-7-25T09:07:57Z
2021-07-25T07:09:44Z,42.805,6.029,13.2988,4.60001,2470.483,2021-7-25T09:11:00Z
2021-07-25T07:12:47Z,42.805,6.029,13.2991,4.60001,2470.497,2021-7-25T09:14:04Z
2021-07-25T07:15:50Z,42.805,6.029,13.2993,4.60000,2470.483,2021-7-25T09:17:07Z
2021-07-25T07:18:53Z,42.805,6.029,13.2992,4.60001,2470.507,2021-7-25T09:20:10Z
2021-07-25T07:21:56Z,42.805,6.029,13.2991,4.60003,2470.544,2021-7-25T09:23:13Z
2021-07-25T07:24:59Z,42.805,6.029,13.2995,4.60001,2470.507,2021-7-25T09:26:16Z
2021-07-25T07:28:02Z,42.805,6.029,13.2992,4.60002,2470.46,2021-7-25T09:29:19Z
2021-07-25T07:31:06Z,42.805,6.029,13.2993,4.60003,2470.46,2021-7-25T09:32:22Z
2021-07-25T07:34:09Z,42.805,6.029,13.2993,4.60002,2470.507,2021-7-25T09:35:25Z
2021-07-25T07:37:12Z,42.805,6.029,13.2991,4.60001,2470.507,2021-7-25T09:38:29Z
2021-07-25T07:40:15Z,42.805,6.029,13.2990,4.60002,2470.507,2021-7-25T09:41:32Z
2021-07-25T07:43:18Z,42.805,6.029,13.2993,4.60001,2470.52,2021-7-25T09:44:35Z
2021-07-25T07:46:21Z,42.805,6.029,13.2993,4.60002,2470.483,2021-7-25T09:47:38Z
2021-07-25T07:49:24Z,42.805,6.029,13.2989,4.60002,2470.483,2021-7-25T09:50:41Z
2021-07-25T07:52:27Z,42.805,6.029,13.2992,4.60001,2470.497,2021-7-25T09:53:44Z
2021-07-25T07:55:31Z,42.805,6.029,13.2990,4.60002,2470.497,2021-7-25T09:56:47Z
2021-07-25T07:58:34Z,42.805,6.029,13.2993,4.60003,2470.52,2021-7-25T09:59:50Z
2021-07-25T08:01:37Z,42.805,6.029,13.2996,4.60001,2470.46,2021-7-25T10:02:54Z
2021-07-25T08:04:40Z,42.805,6.029,13.2993,4.60001,2470.483,2021-7-25T10:05:57Z
2021-07-25T08:07:43Z,42.805,6.029,13.2991,4.60003,2470.507,2021-7-25T10:09:00Z
2021-07-25T08:10:46Z,42.805,6.029,13.2992,4.60003,2470.46,2021-7-25T10:12:03Z
2021-07-25T08:13:49Z,42.805,6.029,13.2992,4.60005,2470.474,2021-7-25T10:15:06Z
2021-07-25T08:16:52Z,42.805,6.029,13.2995,4.60002,2470.52,2021-7-25T10:18:09Z
2021-07-25T08:19:56Z,42.805,6.029,13.2993,4.60002,2470.497,2021-7-25T10:21:12Z
2021-07-25T08:22:59Z,42.805,6.029,13.2994,4.60002,2470.497,2021-7-25T10:24:15Z
2021-07-25T08:26:02Z,42.805,6.029,13.2993,4.60003,2470.507,2021-7-25T10:27:19Z
2021-07-25T08:29:05Z,42.805,6.029,13.2992,4.60003,2470.497,2021-7-25T10:30:22Z
2021-07-25T08:32:08Z,42.805,6.029,13.2994,4.60002,2470.483,2021-7-25T10:33:25Z
2021-07-25T08:35:11Z,42.805,6.029,13.2994,4.60003,2470.474,2021-7-25T10:36:28Z
2021-07-25T08:38:14Z,42.805,6.029,13.2994,4.60006,2470.46,2021-7-25T10:39:31Z
2021-07-25T08:41:17Z,42.805,6.029,13.2993,4.60003,2470.483,2021-7-25T10:42:34Z
2021-07-25T08:44:21Z,42.805,6.029,13.2992,4.60002,2470.507,2021-7-25T10:45:37Z
2021-07-25T08:47:24Z,42.805,6.029,13.2994,4.60003,2470.497,2021-7-25T10:48:40Z
2021-07-25T08:50:27Z,42.805,6.029,13.2995,4.60003,2470.507,2021-7-25T10:51:44Z
2021-07-25T08:53:30Z,42.805,6.029,13.2993,4.60002,2470.497,2021-7-25T10:54:47Z
2021-07-25T08:56:33Z,42.805,6.029,13.2994,4.60003,2470.474,2021-7-25T10:57:50Z
2021-07-25T08:59:36Z,42.805,6.029,13.2994,4.60003,2470.46,2021-7-25T11:00:53Z
2021-07-25T09:02:39Z,42.805,6.029,13.2995,4.60002,2470.46,2021-7-25T11:03:56Z
2021-07-25T09:05:42Z,42.805,6.029,13.2993,4.60003,2470.46,2021-7-25T11:06:59Z
2021-07-25T09:08:46Z,42.805,6.029,13.2995,4.60002,2470.45,2021-7-25T11:10:02Z
2021-07-25T09:11:49Z,42.805,6.029,13.2995,4.60002,2470.46,2021-7-25T11:13:05Z
2021-07-25T09:14:52Z,42.805,6.029,13.2993,4.60002,2470.46,2021-7-25T11:16:09Z
2021-07-25T09:17:55Z,42.805,6.029,13.2991,4.60001,2470.46,2021-7-25T11:19:12Z
2021-07-25T09:20:58Z,42.805,6.029,13.2991,4.60003,2470.483,2021-7-25T11:22:15Z
2021-07-25T09:24:01Z,42.805,6.029,13.2993,4.60002,2470.497,2021-7-25T11:25:18Z
2021-07-25T09:27:04Z,42.805,6.029,13.2991,4.60001,2470.483,2021-7-25T11:28:21Z
2021-07-25T09:30:07Z,42.805,6.029,13.2995,4.60003,2470.483,2021-7-25T11:31:24Z
2021-07-25T09:33:11Z,42.805,6.029,13.2991,4.60001,2470.437,2021-7-25T11:34:27Z
2021-07-25T09:36:14Z,42.805,6.029,13.2994,4.60003,2470.437,2021-7-25T11:37:31Z
2021-07-25T09:39:17Z,42.805,6.029,13.2990,4.60002,2470.474,2021-7-25T11:40:34Z
2021-07-25T09:42:20Z,42.805,6.029,13.2993,4.60003,2470.46,2021-7-25T11:43:37Z
2021-07-25T09:45:23Z,42.805,6.029,13.2991,4.60002,2470.483,2021-7-25T11:46:40Z
2021-07-25T09:48:26Z,42.805,6.029,13.2989,4.60003,2470.427,2021-7-25T11:49:43Z
2021-07-25T09:51:29Z,42.805,6.029,13.2993,4.60003,2470.46,2021-7-25T11:52:46Z
2021-07-25T09:54:33Z,42.805,6.029,13.2991,4.60003,2470.45,2021-7-25T11:55:49Z
2021-07-25T09:57:36Z,42.805,6.029,13.2992,4.60001,2470.474,2021-7-25T11:58:52Z
2021-07-25T10:00:39Z,42.805,6.029,13.2994,4.60001,2470.46,2021-7-25T12:01:56Z
2021-07-25T10:03:42Z,42.805,6.029,13.2988,4.60003,2470.437,2021-7-25T12:04:59Z
2021-07-25T10:06:45Z,42.805,6.029,13.2990,4.60000,2470.413,2021-7-25T12:08:02Z
2021-07-25T10:09:48Z,42.805,6.029,13.2991,4.60001,2470.423,2021-7-25T12:11:05Z
2021-07-25T10:12:51Z,42.805,6.029,13.2990,4.60002,2470.474,2021-7-25T12:14:08Z
2021-07-25T10:15:54Z,42.805,6.029,13.2987,4.60000,2470.45,2021-7-25T12:17:11Z
2021-07-25T10:18:58Z,42.805,6.029,13.2994,4.60005,2470.437,2021-7-25T12:20:14Z
2021-07-25T10:22:01Z,42.805,6.029,13.2993,4.60002,2470.437,2021-7-25T12:23:17Z
2021-07-25T10:25:04Z,42.805,6.029,13.2993,4.60002,2470.427,2021-7-25T12:26:21Z
2021-07-25T10:28:07Z,42.805,6.029,13.2991,4.60001,2470.437,2021-7-25T12:29:24Z
2021-07-25T10:31:10Z,42.805,6.029,13.2992,4.60000,2470.413,2021-7-25T12:32:27Z
2021-07-25T10:34:13Z,42.805,6.029,13.2990,4.60008,2470.39,2021-7-25T12:35:30Z
2021-07-25T10:37:16Z,42.805,6.029,13.2991,4.60001,2470.39,2021-7-25T12:38:33Z
2021-07-25T10:40:19Z,42.805,6.029,13.2993,4.60001,2470.437,2021-7-25T12:41:36Z
2021-07-25T10:43:23Z,42.805,6.029,13.2991,4.60003,2470.46,2021-7-25T12:44:39Z
2021-07-25T10:46:26Z,42.805,6.029,13.2991,4.60001,2470.427,2021-7-25T12:47:42Z
2021-07-25T10:49:29Z,42.805,6.029,13.2993,4.60001,2470.413,2021-7-25T12:50:46Z
2021-07-25T10:52:32Z,42.805,6.029,13.2993,4.60003,2470.45,2021-7-25T12:53:49Z
2021-07-25T10:55:35Z,42.805,6.029,13.2989,4.60000,2470.45,2021-7-25T12:56:52Z
2021-07-25T10:58:38Z,42.805,6.029,13.2992,4.60000,2470.427,2021-7-25T12:59:55Z
2021-07-25T11:01:41Z,42.805,6.029,13.2990,4.60000,2470.427,2021-7-25T13:02:58Z
2021-07-25T11:04:44Z,42.805,6.029,13.2993,4.60001,2470.39,2021-7-25T13:06:01Z
2021-07-25T11:07:48Z,42.805,6.029,13.2992,4.60000,2470.39,2021-7-25T13:09:04Z
2021-07-25T11:10:51Z,42.805,6.029,13.2990,4.60000,2470.39,2021-7-25T13:12:07Z
2021-07-25T11:13:54Z,42.805,6.029,13.2991,4.60002,2470.413,2021-7-25T13:15:11Z
2021-07-25T11:16:57Z,42.805,6.029,13.2995,4.60001,2470.39,2021-7-25T13:18:14Z
2021-07-25T11:20:00Z,42.805,6.029,13.2993,4.60004,2470.413,2021-7-25T13:21:17Z
2021-07-25T11:23:03Z,42.805,6.029,13.2990,4.60000,2470.404,2021-7-25T13:24:20Z
2021-07-25T11:26:06Z,42.805,6.029,13.2991,4.60001,2470.427,2021-7-25T13:27:23Z
2021-07-25T11:29:10Z,42.805,6.029,13.2990,4.60001,2470.366,2021-7-25T13:30:26Z
2021-07-25T11:32:13Z,42.805,6.029,13.2991,4.60001,2470.39,2021-7-25T13:33:29Z
2021-07-25T11:35:16Z,42.805,6.029,13.2993,4.60001,2470.45,2021-7-25T13:36:33Z
2021-07-25T11:38:19Z,42.805,6.029,13.2988,4.60000,2470.366,2021-7-25T13:39:36Z
2021-07-25T11:41:22Z,42.805,6.029,13.2991,4.60001,2470.427,2021-7-25T13:42:39Z
2021-07-25T11:44:25Z,42.805,6.029,13.2993,4.60000,2470.404,2021-7-25T13:45:42Z
2021-07-25T11:47:28Z,42.805,6.029,13.2989,4.60003,2470.427,2021-7-25T13:48:45Z
2021-07-25T11:50:31Z,42.805,6.029,13.2993,4.60001,2470.39,2021-7-25T13:51:48Z
2021-07-25T11:53:35Z,42.805,6.029,13.2989,4.59999,2470.38,2021-7-25T13:54:51Z
2021-07-25T11:56:38Z,42.805,6.029,13.2998,4.60001,2470.366,2021-7-25T13:57:54Z
2021-07-25T11:59:41Z,42.805,6.029,13.2989,4.60000,2470.39,2021-7-25T14:00:58Z
2021-07-25T12:02:44Z,42.805,6.029,13.2993,4.60000,2470.366,2021-7-25T14:04:01Z
2021-07-25T12:05:47Z,42.805,6.029,13.2995,4.60000,2470.39,2021-7-25T14:07:04Z
2021-07-25T12:08:50Z,42.805,6.029,13.2989,4.60000,2470.366,2021-7-25T14:10:07Z
2021-07-25T12:11:53Z,42.805,6.029,13.2992,4.60001,2470.39,2021-7-25T14:13:10Z
2021-07-25T12:14:56Z,42.805,6.029,13.2990,4.60000,2470.404,2021-7-25T14:16:13Z
2021-07-25T12:18:00Z,42.805,6.029,13.2991,4.60005,2470.366,2021-7-25T14:19:16Z
2021-07-25T12:21:03Z,42.805,6.029,13.2990,4.59999,2470.343,2021-7-25T14:22:19Z
2021-07-25T12:24:06Z,42.805,6.029,13.2988,4.60003,2470.343,2021-7-25T14:25:23Z
2021-07-25T12:27:09Z,42.805,6.029,13.2993,4.60000,2470.366,2021-7-25T14:28:26Z
2021-07-25T12:30:12Z,42.805,6.029,13.2990,4.60000,2470.38,2021-7-25T14:31:29Z
2021-07-25T12:33:15Z,42.805,6.029,13.2993,4.60003,2470.38,2021-7-25T14:34:32Z
2021-07-25T12:36:18Z,42.805,6.029,13.2989,4.60004,2470.343,2021-7-25T14:37:35Z
2021-07-25T12:39:21Z,42.805,6.029,13.2993,4.60000,2470.38,2021-7-25T14:40:38Z
2021-07-25T12:42:25Z,42.805,6.029,13.2994,4.59999,2470.38,2021-7-25T14:43:41Z
2021-07-25T12:45:28Z,42.805,6.029,13.2994,4.60000,2470.343,2021-7-25T14:46:44Z
2021-07-25T12:48:31Z,42.805,6.029,13.2995,4.60000,2470.366,2021-7-25T14:49:48Z
2021-07-25T12:51:34Z,42.805,6.029,13.2990,4.60000,2470.32,2021-7-25T14:52:51Z
2021-07-25T12:54:37Z,42.805,6.029,13.2993,4.60000,2470.32,2021-7-25T14:55:54Z
2021-07-25T12:57:40Z,42.805,6.029,13.2994,4.60000,2470.343,2021-7-25T14:58:57Z
2021-07-25T13:00:43Z,42.805,6.029,13.2991,4.60001,2470.32,2021-7-25T15:02:00Z
2021-07-25T13:03:46Z,42.805,6.029,13.2996,4.60000,2470.39,2021-7-25T15:05:03Z
2021-07-25T13:06:50Z,42.805,6.029,13.2986,4.59999,2470.366,2021-7-25T15:08:06Z
2021-07-25T13:09:53Z,42.805,6.029,13.2993,4.60000,2470.366,2021-7-25T15:11:09Z
2021-07-25T13:12:56Z,42.805,6.029,13.2989,4.60000,2470.343,2021-7-25T15:14:13Z
2021-07-25T13:15:59Z,42.805,6.029,13.2988,4.60003,2470.357,2021-7-25T15:17:16Z
2021-07-25T13:19:02Z,42.805,6.029,13.2994,4.60002,2470.357,2021-7-25T15:20:19Z
2021-07-25T13:22:05Z,42.805,6.029,13.2991,4.60000,2470.32,2021-7-25T15:23:22Z
2021-07-25T13:25:08Z,42.805,6.029,13.2993,4.60001,2470.32,2021-7-25T15:26:25Z
2021-07-25T13:28:12Z,42.805,6.029,13.2991,4.60002,2470.334,2021-7-25T15:29:28Z
2021-07-25T13:31:15Z,42.805,6.029,13.2988,4.60001,2470.32,2021-7-25T15:32:31Z
2021-07-25T13:34:18Z,42.805,6.029,13.2991,4.60001,2470.32,2021-7-25T15:35:35Z
2021-07-25T13:37:21Z,42.805,6.029,13.2993,4.59999,2470.334,2021-7-25T15:38:38Z
2021-07-25T13:40:24Z,42.805,6.029,13.2991,4.60000,2470.357,2021-7-25T15:41:41Z
2021-07-25T13:43:27Z,42.805,6.029,13.2992,4.60000,2470.334,2021-7-25T15:44:44Z
2021-07-25T13:46:30Z,42.805,6.029,13.2993,4.60001,2470.31,2021-7-25T15:47:47Z
2021-07-25T13:49:33Z,42.805,6.029,13.2993,4.60001,2470.31,2021-7-25T15:50:50Z
2021-07-25T13:52:37Z,42.805,6.029,13.2991,4.60002,2470.343,2021-7-25T15:53:53Z
2021-07-25T13:55:40Z,42.805,6.029,13.2994,4.59999,2470.32,2021-7-25T15:56:56Z
2021-07-25T13:58:43Z,42.805,6.029,13.2991,4.60001,2470.334,2021-7-25T16:00:00Z
2021-07-25T14:01:46Z,42.805,6.029,13.2991,4.60001,2470.334,2021-7-25T16:03:03Z
2021-07-25T14:04:49Z,42.805,6.029,13.2993,4.60001,2470.343,2021-7-25T16:06:06Z
2021-07-25T14:07:52Z,42.805,6.029,13.2996,4.60001,2470.283,2021-7-25T16:09:09Z
2021-07-25T14:10:55Z,42.805,6.029,13.2993,4.60000,2470.343,2021-7-25T16:12:12Z
2021-07-25T14:13:58Z,42.805,6.029,13.2991,4.60001,2470.297,2021-7-25T16:15:15Z
2021-07-25T14:17:02Z,42.805,6.029,13.2991,4.60001,2470.297,2021-7-25T16:18:18Z
2021-07-25T14:20:05Z,42.805,6.029,13.2993,4.60002,2470.357,2021-7-25T16:21:21Z
2021-07-25T14:23:08Z,42.805,6.029,13.2993,4.60001,2470.32,2021-7-25T16:24:25Z
2021-07-25T14:26:11Z,42.805,6.029,13.2994,4.60005,2470.343,2021-7-25T16:27:28Z
2021-07-25T14:29:14Z,42.805,6.029,13.2993,4.60001,2470.297,2021-7-25T16:30:31Z
2021-07-25T14:32:17Z,42.805,6.029,13.2991,4.60000,2470.297,2021-7-25T16:33:34Z
2021-07-25T14:35:20Z,42.805,6.029,13.2996,4.60001,2470.32,2021-7-25T16:36:37Z
2021-07-25T14:38:23Z,42.805,6.029,13.2994,4.60001,2470.297,2021-7-25T16:39:40Z
2021-07-25T14:41:27Z,42.805,6.029,13.2991,4.60001,2470.32,2021-7-25T16:42:43Z
2021-07-25T14:44:30Z,42.805,6.029,13.2995,4.60002,2470.31,2021-7-25T16:45:47Z
2021-07-25T14:47:33Z,42.805,6.029,13.2992,4.60002,2470.357,2021-7-25T16:48:50Z
2021-07-25T14:50:36Z,42.805,6.029,13.2995,4.60002,2470.297,2021-7-25T16:51:53Z
2021-07-25T14:53:39Z,42.805,6.029,13.2993,4.60003,2470.32,2021-7-25T16:54:56Z
2021-07-25T14:56:42Z,42.805,6.029,13.2991,4.60001,2470.33,2021-7-25T16:57:59Z
2021-07-25T14:59:45Z,42.805,6.029,13.2994,4.60001,2470.334,2021-7-25T17:01:02Z
2021-07-25T15:02:49Z,42.805,6.029,13.2993,4.60002,2470.357,2021-7-25T17:04:05Z
2021-07-25T15:05:52Z,42.805,6.029,13.2991,4.60002,2470.32,2021-7-25T17:07:08Z
2021-07-25T15:08:55Z,42.805,6.029,13.2991,4.60008,2470.343,2021-7-25T17:10:12Z
2021-07-25T15:11:58Z,42.805,6.029,13.2991,4.60001,2470.32,2021-7-25T17:13:15Z
2021-07-25T15:15:01Z,42.805,6.029,13.2992,4.60001,2470.31,2021-7-25T17:16:18Z